Location: Newark
(55.8372°N, 37.1596°E)
Time: 20:16:58
(UTC+00:00)

Envisat - Pass Details

Date: 24 October 2019
Orbit: 764 x 766 km, 98.1° (Epoch: 17 November)

Event Time Altitude Azimuth Distance (km) Brightness Sun altitude
Rises 15:03:13 0° 157° (SSE) 3,225 6.1 -8.0°
Reaches altitude 10° 15:05:31 10° 156° (SSE) 2,303 5.3 -8.3°
Maximum altitude 15:10:35 78° 72° (ENE) 790 3.0 -9.0°
Drops below altitude 10° 15:15:42 10° 346° (NNW) 2,318 5.6 -9.8°
Sets 15:18:01 0° 346° (NNW) 3,248 6.4 -10.1°
